Location: Peebles
(55.6412°N, 3.1714°W)
Time: 06:33:04
(UTC+01:00)

METEOR 2-8 DEB - Pass Details

Date: 11 July 2022
Orbit: 792 x 830 km, 82.5° (Epoch: 08 August)

Event Time Altitude Azimuth Distance (km) Brightness Sun altitude
Rises 23:26:54 0° 231° (SW) 3,307 ? -8.8°
Reaches altitude 10° 23:29:40 10° 244° (WSW) 2,375 ? -9.0°
Maximum altitude 23:34:05 25° 300° (WNW) 1,552 ? -9.3°
Drops below altitude 10° 23:38:29 10° 355° (N) 2,376 ? -9.5°
Sets 23:41:17 0° 9° (N) 3,308 ? -9.7°
